www.pogodaiklimat.ru

АРХИВ ПОГОДЫ в Санкт-Петербурге

Время (UTC), дата Ветер
(напр.,м/с)
 
Видим.   Явления Облачность Т
(С)
Тd
(С)
f
(%)
Тe
(С)
Тes
(С)
Комфортность P
(гПа)
Po
(гПа)
Тmin
(С)
Tmax
(С)
R
(мм)
S
(см)
09 10.01 ЮЗ 4 4000 м слабая морось {снег} 10/10 200 м
[St]
+0.8 -0.2 93 -5 -5 по сезону 1014.4 1013.6
12 10.01 ЮЗ 4 10 км в посл. час снег {морось} 10/10 210 м
[St]
+1.8 +0.4 90 -3 -3 тепло 1014.5 1013.7
15 10.01 ЮЗ 3 4000 м слабый дождь {морось} 10/10 200 м
[Frnb Ns]
+1.6 +0.3 91 -3 -3 тепло 1015.6 1014.8 0.8
18 10.01 ЮЗ 3 10 км {дождь, морось} 10/10 450 м
[Sc]
+1.5 -0.4 87 -3 -3 тепло 1015.7 1014.9 +2.0 0.4
21 10.01 ЮЗ 4 10 км 10/10 270 м
[St]
+0.4 -1.6 86 -5 -5 по сезону 1015.7 1014.9
00 11.01 ЮЗ 5-10
{10}
10 км 10/10 500 м
[Sc]
-2.7 -6.1 77 -9 -9 по сезону 1015.8 1015.0
03 11.01 ЮЗ 3
{10}
10 км 10/10 360 м
[Sc]
-4.2 -6.9 81 -10 -10 по сезону 1015.2 1014.4 -4.2 0.1
06 11.01 ЮЗ 3 10 км 10/10 500 м
[Sc]
-5.3 -7.8 83 -11 -11 по сезону 1013.9 1013.1 -5.5 7
09 11.01 ЮЗ 3 10 км ясно -6.6 -10.0 77 -12 -12 прохладно 1013.1 1012.3
12 11.01 Ю 3 10 км ясно -5.0 -9.5 71 -10 -10 по сезону 1011.1 1010.3
15 11.01 Ю 4 10 км ясно -5.6 -10.1 71 -12 -12 прохладно 1009.3 1008.5
18 11.01 Ю 3 10 км ясно -5.6 -9.8 72 -11 -11 по сезону 1007.2 1006.4 -5.0
21 11.01 Ю 3
{10}
10 км ясно -5.0 -9.6 70 -10 -10 по сезону 1005.9 1005.1
00 12.01 Ю 5-10
{11}
10 км ясно -4.8 -8.2 77 -12 -12 прохладно 1004.5 1003.7
03 12.01 Ю 4
{10}
10 км ясно -3.5 -6.4 80 -10 -10 по сезону 1003.2 1002.4 -6.0
06 12.01 ЮВ 2 10 км 9/9 500 м
[Sc]
-2.8 -5.7 80 -7 -7 по сезону 1001.4 1000.7 -5.6 1
09 12.01 Ю 2 10 км 10/10 480 м
[Sc]
-2.3 -5.6 78 -6 -6 по сезону 999.7 998.9
12 12.01 ЮВ 2 10 км слабый снег 10/10 500 м
[Sc]
-2.7 -6.4 76 -7 -7 по сезону 998.1 997.3
15 12.01 ЮВ 2 10 км {снег} 10/10 450 м
[Sc]
-3.8 -6.9 79 -8 -8 по сезону 996.7 995.9 0.0
18 12.01 ЮВ 2
{10}
10 км {снег} 10/10 420 м
[Sc]
-4.8 -7.8 79 -9 -9 по сезону 994.9 994.2 -2.3
21 12.01 ЮВ 3 10 км 9/9 540 м
[Sc]
-4.9 -8.2 78 -10 -10 по сезону 993.5 992.8
00 13.01 ЮВ 2 4000 м слабый снег 10/10 300 м
[Frnb Ns]
-5.3 -7.7 83 -10 -10 по сезону 992.6 991.8
03 13.01 Ю 2 4000 м слабый снег 10/10 300 м
[Frnb Ns]
-4.8 -6.6 87 -9 -9 по сезону 991.8 991.0 -5.6 0.9
06 13.01 ЮВ 1 4000 м слабый снег {ливн. осадки} 10/10 200 м
[Frnb Ns]
-3.7 -5.6 87 -6 -6 по сезону 991.7 990.9 -5.6 1 4
09 13.01 Ю 3 4000 м слабый снег 10/10 300 м
[Frnb Ns]
-2.0 -4.2 85 -7 -7 по сезону 992.5 991.8
12 13.01 Ю 5
{10}
10 км {ливн. осадки, снег} 10/10 300 м
[Sc]
+0.5 -1.7 85 -5 -5 по сезону 993.7 992.9
15 13.01 Ю 3 10 км {снег} 8/8 600 м
[Sc]
+1.2 -1.0 85 -3 -3 по сезону 995.6 994.9 0.5
18 13.01 Ю 4 10 км {снег} 6/6 300 м
[Sc]
+1.3 -1.1 84 -4 -4 по сезону 996.7 995.9 +1.5 0.0
21 13.01 Ю 4 10 км {снег} 10/10 450 м
[Sc]
+0.9 -1.8 82 -4 -4 по сезону 997.4 996.6
00 14.01 ЮВ 2 10 км {снег} 10/10 330 м
[Sc]
+0.2 -2.2 84 -3 -3 по сезону 997.3 996.6
03 14.01 ЮВ 3 2000 м слабый ливневой снег 10/10 200 м
[Cb cap]
-1.0 -2.1 92 -6 -6 по сезону 996.1 995.3 -1.0 0.9
06 14.01 ЮВ 2 4000 м снег {ливн. осадки} 10/10 200 м
[Frnb Ns]
-1.2 -2.3 92 -5 -5 по сезону 995.1 994.4 -1.3 2 5
09 14.01 Ю 2 10 км в посл. час снег 10/10 360 м
[Sc]
-0.4 -2.2 88 -4 -4 по сезону 996.0 995.2
12 14.01 ЮЗ 2 10 км {снег} 10/8 870 м
[Sc As op]
+0.5 -1.6 86 -3 -3 по сезону 997.6 996.8
15 14.01 ЮЗ 1 10 км 10/8 300 м
[Sc As op]
+0.4 -1.7 86 -2 -2 тепло 999.7 998.9 2
18 14.01 Ю 1 10 км 10/8 300 м
[Sc As op]
+0.3 -2.2 83 -2 -2 тепло 1000.8 1000.1 +0.7 0.4
21 14.01 штиль 0 10 км 10/8 300 м
[Sc As op]
+0.2 -1.3 90 -1 -1 тепло 1000.8 1000.0
00 15.01 С 1 10 км 10/10 120 м
[St]
-0.5 -1.2 95 -3 -3 по сезону 1000.8 1000.0
03 15.01 СВ 1 4000 м слабый снег {туман} 10/0
[As op]
-0.8 -1.3 96 -3 -3 по сезону 1000.1 999.3 -0.9 0.4
06 15.01 СВ 1 4000 м слабый снег {туман} 10/10 300 м
[Frnb Ns]
-0.9 -1.7 94 -3 -3 по сезону 999.9 999.1 -1.0 2 7
09 15.01 С 1 2000 м снег 10/10 200 м
[Frnb Ns]
-0.9 -1.6 95 -3 -3 по сезону 999.9 999.1
12 15.01 С 2 2000 м слабый снег 10/10 200 м
[Frnb Ns]
-0.6 -1.3 95 -5 -5 по сезону 1000.9 1000.2
15 15.01 СЗ 2 4000 м слабый снег 10/10 200 м
[Frnb Ns]
-1.4 -2.1 95 -5 -5 по сезону 1004.1 1003.3 5
18 15.01 ЮЗ 1 10 км в посл. час снег 8/8 300 м
[Sc]
-2.3 -3.3 93 -5 -5 по сезону 1007.7 1007.0 -0.6 4
21 15.01 З 1 10 км 8/8 330 м
[Sc]
-1.7 -3.0 91 -4 -4 по сезону 1011.1 1010.3
00 16.01 З 1 10 км 9/9 330 м
[Sc]
-2.0 -3.0 93 -4 -4 по сезону 1013.9 1013.1
03 16.01 СЗ 1 10 км 9/0
[Ac As]
-3.2 -4.4 91 -6 -6 по сезону 1015.9 1015.1 -3.2 0.3
06 16.01 З 1 10 км 10/10 240 м
[St]
-3.3 -4.4 92 -6 -6 по сезону 1018.2 1017.4 -4.4 11
09 16.01 ЮЗ 1 10 км 10/10 210 м
[St]
-3.6 -5.0 90 -6 -6 по сезону 1020.6 1019.8
12 16.01 штиль 0 10 км 10/10 750 м
[Sc]
-2.7 -5.1 84 -4 -4 по сезону 1022.0 1021.2
15 16.01 штиль 0 10 км 10/10 750 м
[Sc]
-3.2 -5.1 87 -4 -4 по сезону 1023.6 1022.8
18 16.01 З 1 10 км 10/10 660 м
[Sc]
-3.0 -5.0 86 -5 -5 по сезону 1025.0 1024.2 -2.5
21 16.01 З 1 10 км 10/10 660 м
[Sc]
-3.6 -6.4 81 -6 -6 по сезону 1026.9 1026.1
00 17.01 З 1 10 км 10/10 500 м
[Sc]
-4.3 -6.5 85 -7 -7 по сезону 1028.4 1027.6
03 17.01 ЮЗ 2 10 км 10/10 800 м
[Sc]
-4.5 -6.7 85 -9 -9 по сезону 1029.3 1028.5 -4.8
06 17.01 ЮЗ 2 10 км 10/10 210 м
[St]
-4.4 -6.3 87 -9 -9 по сезону 1030.4 1029.6 -4.8 8

 

Местоположение метеостанции Санкт-Петербург (город Санкт-Петербург, Россия): широта 59.97 долгота 30.30 высота над уровнем моря 6 м.

В архиве по умолчанию представлена погода в Санкт-Петербурге за последнюю неделю. Архивные данные за месяц целиком и за предыдущие месяцы, начиная с января 2011 года, Вы можете получить, выбрав интересующий диапазон дат из раскрывающегося списка и нажав кнопку "Ввод!".

Внимание! Время в таблицах - всемирное. Для получения местного времени необходимо прибавить поправку, которая в Санкт-Петербурге равна 3 ч.

Ветер - указаны скорость ветра в м/с - средняя за 10 мин, порывы в срок и между сроками (в фигурных скобках) и направление, откуда дует ветер: С - северный, СВ - северо-восточный, В - восточный, ЮВ - юго-восточный, Ю - южный, ЮЗ - юго-западный, З - западный, СЗ - северо-западный.
Видимость - горизонтальная дальность видимости в метрах или километрах. При видимости от 1 до 10 км при отсутствии осадков обычно наблюдается дымка, при ухудшении видимости до 1 км и менее - туман. В сухую погоду видимость может ухудшаться дымом, пылью или мглою.
Явления - указаны атмосферные явления, наблюдавшиеся в срок или в последний час перед сроком; фигурными скобками обозначены явления, наблюдавшиеся между сроками (за 1-3 часа до срока); квадратными скобками обозначены град или гололедные отложения с указанием их диаметра в мм.
Облачность - указаны через наклонную черту общая и нижняя облачность в баллах и высота нижней границы облаков в метрах; квадратными скобками обозначены формы облаков: Ci - перистые, Cs - перисто-слоистые, Cc - перисто-кучевые, Ac - высококучевые, As - высокослоистые, Sc - слоисто-кучевые, Ns - слоисто-дождевые, Cu - кучевые, Cb - кучево-дождевые. Подробнее классификацию облаков см. в Атласе облаков (PDF).
T - Температура воздуха - температура, измеренная на высоте 2 м над землей.
Td - Температура точки росы - температура, при понижении до которой содержащийся в воздухе водяной пар достигнет насыщения.
f - Относительная влажность воздуха - влажноcть воздуха, измеренная на высоте 2 м над землей.
Te - Эффективная температура - температура, которую ощущает одетый по сезону человек в тени. Характеристика душности погоды. При расчете учитывается влияние влажности воздуха и скорости ветра на теплоощущения человека.
Tes - Эффективная температура на солнце - температура, которую ощущает человек, с поправкой на солнечный нагрев. Характеристика знойности погоды. Зависит от высоты солнца над горизонтом, облачности и скорости ветра. Ночью, в пасмурную погоду, а также при ветре 12 м/с и более поправка равна нулю.
P - Атмосферное давление - приведенное к уровню моря атмосферное давление.
Po - Атмосферное давление - измеренное на уровне метеостанции атмосферное давление.
Tmin - Минимальная температура - минимум температуры воздуха на высоте 2 м над землей.
Tmax - Максимальная температура - максимум температуры воздуха на высоте 2 м над землей.
R - Количество осадков - Количество выпавших осадков, мм. При наведении курсора мыши на число - период времени, за который выпало указанное количество осадков.
S - Снежный покров - Высота снежного покрова, см. При наведении курсора мыши на число - состояние снежного покрова и степень покрытия местности в баллах.